Weather History for Lumberton, NC

Change the Weather History Date:

Friday, July 19, 2013

  Actual Average Record
Temperature  
Mean Temperature 83 °F 81 °F  
Max Temperature 93 °F 91 °F 100 °F (2002)
Min Temperature 73 °F 72 °F 67 °F (2014)
Degree Days  
Heating Degree Days 0 0  
Month to date heating degree days 0 0  
Since 1 June heating degree days 0 0  
Since 1 July heating degree days 0 0  
Cooling Degree Days 18 16  
Month to date cooling degree days 299 304  
Year to date cooling degree days 892 942  
Since 1 June cooling degree days 700 692  
Growing Degree Days 32 (Base 50)    
Moisture  
Dew Point 72 °F    
Average Humidity 71    
Maximum Humidity 93    
Minimum Humidity 49    
Precipitation  
Precipitation 0.00 in 0.20 in 0.10 in (2004)
Month to date precipitation 5.20 3.10  
Year to date precipitation 30.39 22.51  
Sea Level Pressure  
Sea Level Pressure 30.08 in    
Wind  
Wind Speed 6 mph (SW)    
Max Wind Speed 15 mph    
Max Gust Speed 21 mph    
Visibility 10 miles    
Events      
T = Trace of Precipitation, MM = Missing Value Source: NWS Daily Summary

Daily Weather History Graph

Daily Weather History Graph

Search for Another Location

Airport:

Trip Planner

Search our weather history database for the weather conditions in past years. The results will help you decide how hot, cold, wet, or windy it might be!

Date:

Astronomy

Jul. 19, 2013 Rise Set
Actual Time 6:17 AM EDT 8:27 PM EDT
Civil Twilight 5:48 AM EDT 8:55 PM EDT
Nautical Twilight 5:13 AM EDT 9:30 PM EDT
Astronomical Twilight 4:36 AM EDT 10:08 PM EDT
Moon 5:28 PM EDT (7/19) 2:56 AM EDT (7/19)
Length of Visible Light 15h 07m
Length of Day
14h 10m
Waxing Gibbous, 86% of the Moon is Illuminated
Jul 19
Waxing Gibbous
Jul 22
Full
Jul 29
Last Quarter
Aug 6
New
Aug 14
First Quarter

Hourly Weather History & Observations

Time (EDT) Temp. Heat Index Dew Point Humidity Pressure Visibility Wind Dir Wind Speed Gust Speed Precip Events Conditions
12:54 AM 78.1 °F - 73.0 °F 84% 30.12 in 10.0 mi SW 5.8 mph - N/A   Mostly Cloudy
1:54 AM 77.0 °F - 73.0 °F 88% 30.11 in 10.0 mi SSW 4.6 mph - N/A   Clear
2:54 AM 75.9 °F - 72.0 °F 87% 30.10 in 10.0 mi SW 4.6 mph - N/A   Clear
3:54 AM 75.0 °F - 72.0 °F 90% 30.09 in 10.0 mi SSW 3.5 mph - N/A   Clear
4:54 AM 73.9 °F - 72.0 °F 93% 30.09 in 8.0 mi South 3.5 mph - N/A   Clear
5:54 AM 73.9 °F - 72.0 °F 93% 30.10 in 7.0 mi Calm Calm - N/A   Clear
6:54 AM 73.9 °F - 72.0 °F 93% 30.10 in 5.0 mi SSW 3.5 mph - N/A   Clear
7:54 AM 77.0 °F - 73.9 °F 90% 30.12 in 10.0 mi Variable 4.6 mph - N/A   Clear
8:54 AM 80.1 °F 84.2 °F 73.0 °F 79% 30.13 in 10.0 mi WSW 10.4 mph - N/A   Clear
9:54 AM 84.0 °F 89.0 °F 71.1 °F 65% 30.13 in 10.0 mi WSW 12.7 mph - N/A   Clear
10:54 AM 86.0 °F 92.2 °F 72.0 °F 63% 30.13 in 10.0 mi West 10.4 mph - N/A   Partly Cloudy
11:54 AM 88.0 °F 93.8 °F 71.1 °F 57% 30.12 in 10.0 mi WSW 10.4 mph - N/A   Clear
12:54 PM 89.1 °F 94.1 °F 70.0 °F 53% 30.11 in 10.0 mi SW 6.9 mph - N/A   Partly Cloudy
1:54 PM 90.0 °F 94.5 °F 69.1 °F 50% 30.08 in 10.0 mi Variable 5.8 mph - N/A   Partly Cloudy
2:54 PM 91.0 °F 95.6 °F 69.1 °F 48% 30.06 in 10.0 mi WSW 6.9 mph - N/A   Partly Cloudy
3:54 PM 91.9 °F 97.4 °F 70.0 °F 48% 30.04 in 10.0 mi South 5.8 mph - N/A   Clear
4:54 PM 88.0 °F 95.6 °F 73.0 °F 61% 30.03 in 10.0 mi Variable 6.9 mph 16.1 mph N/A   Partly Cloudy
5:54 PM 88.0 °F 95.6 °F 73.0 °F 61% 30.02 in 10.0 mi SSW 11.5 mph 16.1 mph N/A   Clear
6:54 PM 87.1 °F 94.5 °F 73.0 °F 63% 30.01 in 10.0 mi South 4.6 mph - N/A   Clear
7:54 PM 84.0 °F 91.2 °F 73.9 °F 72% 30.01 in 10.0 mi Variable 4.6 mph - N/A   Clear
8:54 PM 81.0 °F 86.2 °F 73.9 °F 79% 30.02 in 10.0 mi Calm Calm - N/A   Clear
9:54 PM 80.1 °F 84.2 °F 73.0 °F 79% 30.04 in 10.0 mi SSW 5.8 mph - N/A   Clear
10:54 PM 79.0 °F - 73.0 °F 82% 30.06 in 10.0 mi South 8.1 mph - N/A   Clear
11:54 PM 78.1 °F - 73.0 °F 84% 30.07 in 10.0 mi SSW 5.8 mph - N/A   Clear